Historyczne dane pomiarowe

Dodano dane terminowe – wersja testowa.

Dane z okresu 1951-2019

Wersja bazy: 1.34 [2019-03-16, lista zmian], aktualizacja planowana na 2019-04-15

Dane meteo z obszaru Polski uzyskane na podstawie danych udostępnionych przez Instytut Meteorologii i Gospodarki Wodnej – Państwowy Instytut Badawczy.

 

Wybierz Datę:    

       

TemperaturaWilgotnośćWiatrCiśnienieOpadyŚniegCzas trwania zjawisk
 Stacja t tx tn tng RH VA  wxwx mslp ppp RRR   cm mm wxwxwxwxwxwxwx
1956-11-09 -2.4 0.6 -4.6- 77.8- 3.3 1.7---- 0.0------------
1956-11-08 -1.8 3.6 -4.5- 87.0- 3.7 0.3---- 0.0------------
1956-11-07 0.8 2.7 -0.8- 87.3- 5.7 3.7---- 0.2------------
1956-11-06 1.1 4.4 0.0- 92.0- 7.7 7.7---- 1.4------------
1956-11-05 4.1 7.1 -3.4- 86.8- 6.7 4.7---- 1.1------------
1956-11-04 -0.7 4.5 -3.9 -1.4 84.5- 1.7 1.7---- 0.0------------
1956-11-03 -0.7 4.3 -3.4 -2.1 84.8- 2.7 1.0---- 0.0------------
1956-11-02 -0.6 2.6 -2.8 0.0 95.0- 5.3 1.3---- 0.0------------
1956-11-01 -1.8 3.1 -7.2 -5.5 78.0- 3.3 1.0---- 0.0------------
1956-10-31 -5.9 -0.5 -7.4 -6.8 84.3- 2.3 4.0---- 0.0------------
1956-10-30 1.2 4.8 -1.1 6.7 93.0- 8.0 3.7---- 1.4------------
1956-10-29 4.4 9.2 3.4 3.7 94.5- 7.7 1.7---- 3.3------------
1956-10-28 9.0 10.1 7.3 4.7 98.3- 8.0 3.3---- 15.2------------
1956-10-27 9.2 11.7 6.2 8.1 98.0- 8.0 3.7---- 3.4------------
1956-10-26 7.0 10.9 6.3 6.1 97.5- 8.0 2.0---- 5.7------------
1956-10-25 10.9 14.8 5.5 6.5 85.8- 7.7 1.7---- 0.5------------
1956-10-24 11.3 17.5 4.3 3.3 84.8- 4.7 2.0---- 0.0------------
1956-10-23 8.1 12.3 5.4 4.6 91.5- 5.0 1.3---- 0.0------------
1956-10-22 10.3 15.3 7.1 5.3 92.8- 4.3 1.3---- 0.0------------
1956-10-21 11.5 17.3 8.1 3.9 92.5- 2.3 0.7---- 0.0------------
1956-10-20 9.8 14.1 4.3 1.7 92.0- 7.3 1.3---- 0.0------------
1956-10-19 10.1 14.4 7.8 14.5 95.5- 7.0 4.7---- 0.9------------
1956-10-18 10.2 12.9 3.7 2.6 97.8- 8.0 3.0---- 4.0------------
1956-10-17 7.2 15.5 0.8 0.5 82.5- 1.0 2.0---- 0.0------------
1956-10-16 5.4 14.2 -1.2 -1.5 85.3- 0.7 0.7---- 0.0------------
1956-10-15 5.7 11.9 1.4 -0.5 84.0- 0.3 1.3---- 0.0------------
1956-10-14 8.0 12.8 4.1 9.8 75.3- 4.0 5.3---- 1.2------------
1956-10-13 10.4 12.3 6.9 9.3 76.0- 7.3 8.0---- 4.7------------
1956-10-12 8.8 12.2 6.7 10.4 84.3- 5.0 5.0---- 0.0------------
1956-10-11 7.5 12.1 1.4 0.7 80.8- 3.7 2.7---- 0.0------------
1956-10-10 3.9 10.1 -0.2 -0.5 83.0- 5.7 1.7---- 0.0------------
1956-10-09 7.0 8.4 1.8 2.8 95.8- 8.0 3.7---- 2.0------------
1956-10-08 3.4 9.5 -0.2 -0.2 88.5- 4.7 2.7---- 0.0------------
1956-10-07 5.4 9.1 3.3 10.1 85.5- 5.0 6.7---- 0.0------------
1956-10-06 5.6 7.2 4.5 7.5 93.3- 8.0 5.3---- 13.9------------
1956-10-05 8.6 14.1 6.2 9.2 85.3- 4.7 2.3---- 0.9------------
1956-10-04 10.1 13.4 5.9 1.8 94.8- 5.0 1.0---- 1.7------------
1956-10-03 13.0 17.7 8.6 8.1 85.5- 4.3 4.3---- 0.0------------
1956-10-02 15.8 25.3 10.1 7.0 82.3- 3.0 3.7---- 0.0------------
1956-10-01 16.4 24.3 7.7 3.9 78.0- 2.7 3.7---- 0.0------------
1956-09-30 12.4 19.3 8.4 6.2 85.0- 4.7 1.7---- 0.0------------
1956-09-29 15.9 19.6 12.6 5.1 84.3- 5.7 3.3---- 0.0------------
1956-09-28 14.7 19.1 11.6 9.8 79.5- 6.3 5.0---- 0.0------------
1956-09-27 16.3 23.3 10.6 0.4 77.5- 2.7 2.3---- 0.0------------
1956-09-26 15.9 23.1 7.2 4.3 62.0- 0.0 4.3---- 0.3------------
1956-09-25 12.8 22.5 3.2 1.1 77.3- 0.7 1.7---- 0.0------------
1956-09-24 9.4 16.1 4.1 2.7 69.5- 0.0 6.0---- 0.0------------
1956-09-23 12.1 19.4 7.3 5.5 74.8- 0.3 4.3---- 0.0------------
1956-09-22 12.3 19.5 5.3 1.8 77.3- 0.0 2.3---- 0.0------------
1956-09-21 11.3 19.8 3.6 0.2 83.5- 0.7 0.0---- 0.0------------
1956-09-20 10.0 17.7 2.8 1.7 78.3- 3.7 1.7---- 0.0------------
1956-09-19 8.7 16.8 0.9 -0.6 80.3- 1.7 0.7---- 0.0------------
1956-09-18 8.8 13.3 3.7 1.0 86.3- 3.0 2.7---- 0.0------------
1956-09-17 8.0 11.3 6.7 7.1 95.3- 5.0 2.7---- 4.4------------
1956-09-16 10.4 15.1 5.1 4.9 81.3- 6.3 3.0---- 1.6------------
1956-09-15 8.8 15.3 4.9 4.7 91.3- 5.3 3.0---- 0.0------------
1956-09-14 9.8 15.1 5.6 4.7 88.0- 3.3 1.7---- 0.0------------
1956-09-13 9.6 14.8 7.0 6.0 88.3- 6.7 4.0---- 2.2------------
1956-09-12 10.2 16.5 7.4 11.4 91.5- 6.0 5.0---- 13.4------------
1956-09-11 13.9 17.1 12.0 10.0 96.3- 6.0 1.3---- 4.3------------
275.5 ms

 

Źródłem pochodzenia danych jest Instytut Meteorologii i Gospodarki Wodnej – Państwowy Instytut Badawczy. Dane Instytutu Meteorologii i Gospodarki Wodnej – Państwowego Instytutu Badawczego zostały przetworzone.

Dane źródłowe można odnaleźć na stronie https://dane.imgw.pl